This demonstration page uses our WeatherBlox Daily Observations layout. Learn more.

Left ArrowRight Arrow

Hourly Observations for April 2, 2021

Temp ( °F °C ) Dew Point ( °F °C ) Humidity (%) Winds ( mph kmh ) Pressure ( in mb ) Visibility ( mi km ) Precip ( " mm )
12:15 am 00:15 Clear 32 0 21 -6 64 64 NW 12 19 30.23 1024 10 16.0934 0 0
12:35 am 00:35 Clear 32 0 21 -6 64 64 NW 13 20 30.23 1024 10 16.0934 0 0
12:55 am 00:55 Clear 32 0 21 -6 64 64 NW 14 22 30.24 1024 10 16.0934 0 0
1:15 am 01:15 Clear 32 0 21 -6 64 64 NW 15 24 30.24 1024 10 16.0934 0 0
1:35 am 01:35 Clear 32 0 21 -6 64 64 NNW 23 37 30.23 1024 10 16.0934 0 0
1:55 am 01:55 Clear 32 0 21 -6 64 64 NNW 20 31 30.24 1024 10 16.0934 0 0
2:15 am 02:15 Clear 32 0 21 -6 64 64 NNW 14 22 30.24 1024 10 16.0934 0 0
2:35 am 02:35 Partly Cloudy 32 0 21 -6 64 64 N 6 9 30.25 1024 10 16.0934 0 0
2:55 am 02:55 Mostly Cloudy 32 0 19 -7 60 60 N 9 15 30.26 1025 10 16.0934 0 0
3:15 am 03:15 Mostly Cloudy 30 -1 19 -7 64 64 NNW 9 15 30.26 1025 10 16.0934 0 0
3:35 am 03:35 Mostly Cloudy 30 -1 19 -7 64 64 NW 10 17 30.27 1025 10 16.0934 0 0
3:55 am 03:55 Partly Cloudy 30 -1 18 -8 59 59 NNW 13 20 30.27 1025 10 16.0934 0 0
4:15 am 04:15 Clear 30 -1 18 -8 59 59 NNW 14 22 30.27 1025 10 16.0934 0 0
4:35 am 04:35 Clear 30 -1 18 -8 59 59 NNW 14 22 30.28 1026 10 16.0934 0 0
4:55 am 04:55 Clear 30 -1 18 -8 59 59 NNW 16 26 30.28 1026 10 16.0934 0 0
5:15 am 05:15 Clear 30 -1 18 -8 59 59 N 12 19 30.29 1026 10 16.0934 0 0
5:35 am 05:35 Partly Cloudy 30 -1 18 -8 59 59 NNW 13 20 30.3 1026 10 16.0934 0 0
5:55 am 05:55 Partly Cloudy 30 -1 19 -7 64 64 NNW 18 30 30.3 1026 10 16.0934 0 0
6:15 am 06:15 Partly Cloudy 30 -1 19 -7 64 64 NNW 17 28 30.32 1027 10 16.0934 0 0
6:35 am 06:35 Cloudy 28 -2 19 -7 69 69 NNW 16 26 30.34 1027 10 16.0934 0 0
6:55 am 06:55 Partly Cloudy 28 -2 19 -7 69 69 NNW 13 20 30.35 1028 10 16.0934 0 0
7:15 am 07:15 Sunny 28 -2 18 -8 64 64 NNW 15 24 30.36 1028 10 16.0934 0 0
7:35 am 07:35 Partly Cloudy 30 -1 18 -8 59 59 NNW 17 28 30.36 1028 10 16.0934 0 0
7:55 am 07:55 Sunny 30 -1 18 -8 59 59 NNW 13 20 30.37 1029 10 16.0934 0 0
8:15 am 08:15 Sunny 32 0 18 -8 55 55 NNW 15 24 30.37 1029 10 16.0934 0 0
8:35 am 08:35 Sunny 32 0 18 -8 55 55 NNW 15 24 30.37 1029 10 16.0934 0 0
8:55 am 08:55 Sunny 32 0 18 -8 55 55 NNW 16 26 30.37 1029 10 16.0934 0 0
9:15 am 09:15 Sunny 32 0 18 -8 55 55 N 16 26 30.37 1029 10 16.0934 0 0
9:35 am 09:35 Sunny 32 0 18 -8 55 55 NNW 21 33 30.38 1029 10 16.0934 0 0
9:55 am 09:55 Partly Cloudy 32 0 18 -8 55 55 NNW 23 37 30.38 1029 10 16.0934 0 0
10:15 am 10:15 Partly Cloudy 34 1 18 -8 51 51 N 17 28 30.38 1029 10 16.0934 0 0
10:35 am 10:35 Partly Cloudy 34 1 18 -8 51 51 NNW 16 26 30.38 1029 10 16.0934 0 0
10:55 am 10:55 Mostly Cloudy 36 2 18 -8 48 48 NNW 22 35 30.37 1028 10 16.0934 0 0
11:15 am 11:15 Partly Cloudy 36 2 18 -8 48 48 NW 23 37 30.37 1028 10 16.0934 0 0
11:35 am 11:35 Partly Cloudy 36 2 14 -10 41 41 N 22 35 30.37 1028 10 16.0934 0 0
11:55 am 11:55 Sunny 37 3 18 -8 45 45 N 16 26 30.36 1028 10 16.0934 0 0
12:15 pm 12:15 Sunny 37 3 19 -7 48 48 NW 17 28 30.35 1028 10 16.0934 0 0
12:35 pm 12:35 Partly Cloudy 37 3 18 -8 45 45 NW 20 31 30.35 1028 10 16.0934 0 0
12:55 pm 12:55 Partly Cloudy 41 5 18 -8 39 39 NW 23 37 30.33 1027 10 16.0934 0 0
1:15 pm 13:15 Partly Cloudy 39 4 14 -10 36 36 NNW 20 31 30.34 1027 10 16.0934 0 0
1:35 pm 13:35 Sunny 41 5 18 -8 39 39 NW 17 28 30.32 1027 10 16.0934 0 0
1:55 pm 13:55 Partly Cloudy 41 5 18 -8 39 39 NW 21 33 30.32 1027 10 16.0934 0 0
2:15 pm 14:15 Partly Cloudy 41 5 14 -10 33 33 N 20 31 30.32 1027 10 16.0934 0 0
2:35 pm 14:35 Partly Cloudy 43 6 18 -8 36 36 N 21 33 30.31 1026 10 16.0934 0 0
2:55 pm 14:55 Partly Cloudy 43 6 18 -8 36 36 NNW 24 39 30.3 1026 10 16.0934 0 0
3:15 pm 15:15 Partly Cloudy 43 6 18 -8 36 36 NNW 17 28 30.29 1026 10 16.0934 0 0
3:35 pm 15:35 Sunny 43 6 14 -10 31 31 NNW 20 31 30.29 1026 10 16.0934 0 0
3:55 pm 15:55 Sunny 43 6 16 -9 34 34 N 15 24 30.29 1026 10 16.0934 0 0
4:15 pm 16:15 Partly Cloudy 45 7 14 -10 29 29 N 16 26 30.29 1026 10 16.0934 0 0
4:35 pm 16:35 Mostly Cloudy 45 7 16 -9 31 31 NNW 20 31 30.29 1026 10 16.0934 0 0
4:55 pm 16:55 Mostly Cloudy 45 7 16 -9 31 31 NNW 28 44 30.29 1026 10 16.0934 0 0
5:15 pm 17:15 Partly Cloudy 43 6 16 -9 34 34 N 13 20 30.29 1026 10 16.0934 0 0
5:35 pm 17:35 Mostly Cloudy 43 6 16 -9 34 34 NNW 21 33 30.29 1026 10 16.0934 0 0
5:55 pm 17:55 Partly Cloudy 43 6 18 -8 36 36 NW 16 26 30.29 1026 10 16.0934 0 0
6:15 pm 18:15 Partly Cloudy 43 6 16 -9 34 34 NNW 18 30 30.3 1026 10 16.0934 0 0
6:35 pm 18:35 Partly Cloudy 43 6 14 -10 31 31 NNW 14 22 30.3 1026 10 16.0934 0 0
6:55 pm 18:55 Partly Cloudy 43 6 14 -10 31 31 NNW 15 24 30.31 1026 10 16.0934 0 0
7:15 pm 19:15 Sunny 41 5 14 -10 33 33 NNW 13 20 30.31 1027 10 16.0934 0 0
7:35 pm 19:35 Sunny 41 5 14 -10 33 33 NNW 10 17 30.32 1027 10 16.0934 0 0
7:55 pm 19:55 Clear 39 4 14 -10 36 36 N 7 11 30.33 1027 10 16.0934 0 0
8:15 pm 20:15 Clear 39 4 14 -10 36 36 NNW 9 15 30.34 1027 10 16.0934 0 0
8:35 pm 20:35 Clear 37 3 16 -9 41 41 NNW 13 20 30.35 1028 10 16.0934 0 0
8:55 pm 20:55 Clear 39 4 14 -10 36 36 NNW 14 22 30.36 1028 10 16.0934 0 0
9:15 pm 21:15 Clear 37 3 14 -10 38 38 NNW 12 19 30.37 1028 10 16.0934 0 0
9:35 pm 21:35 Clear 37 3 14 -10 38 38 NNW 8 13 30.38 1029 10 16.0934 0 0
9:55 pm 21:55 Clear 37 3 14 -10 38 38 NNW 9 15 30.39 1029 10 16.0934 0 0
10:15 pm 22:15 Clear 37 3 14 -10 38 38 N 10 17 30.39 1029 10 16.0934 0 0
10:35 pm 22:35 Clear 37 3 14 -10 38 38 N 14 22 30.4 1029 10 16.0934 0 0
10:55 pm 22:55 Clear 37 3 14 -10 38 38 NNW 12 19 30.4 1029 10 16.0934 0 0
11:15 pm 23:15 Clear 37 3 14 -10 38 38 NNW 9 15 30.41 1030 10 16.0934 0 0
11:35 pm 23:35 Clear 36 2 14 -10 41 41 N 7 11 30.41 1030 10 16.0934 0 0
11:55 pm 23:55 Clear 36 2 14 -10 41 41 N 5 7 30.41 1030 10 16.0934 0 0

Powered by AerisWeather